H1 CPF 2 NER 2023 1 3 9 003 01 glonass129 H2 1106402 9129 37868 2023 1 3 0 0 0 2023 1 6 23 45 0 900 1 1 0 0 0 1 H9 10 0 59947 0.00000 0 -16113816.219 5417452.365 19031756.537 10 0 59947 900.00000 0 -18308100.672 5067911.568 17030438.472 10 0 59947 1800.00000 0 -20258365.675 4914064.867 14698524.103 10 0 59947 2700.00000 0 -21911257.790 4922585.207 12081062.204 10 0 59947 3600.00000 0 -23222839.554 5051293.924 9228723.816 10 0 59947 4500.00000 0 -24160311.039 5251146.344 6196831.472 10 0 59947 5400.00000 0 -24703284.578 5468521.413 3044290.532 10 0 59947 6300.00000 0 -24844557.197 5647718.564 -167557.118 10 0 59947 7200.00000 0 -24590346.201 5733555.469 -3376134.383 10 0 59947 8100.00000 0 -23959976.169 5673955.106 -6518861.047 10 0 59947 9000.00000 0 -22985029.136 5422410.362 -9534391.188 10 0 59947 9900.00000 0 -21707992.998 4940219.104 -12363829.822 10 0 59947 10800.00000 0 -20180465.061 4198392.151 -14951903.033 10 0 59947 11700.00000 0 -18460987.071 3179150.485 -17248056.676 10 0 59947 12600.00000 0 -16612604.178 1876945.835 -19207460.242 10 0 59947 13500.00000 0 -14700252.207 298959.354 -20791894.805 10 0 59947 14400.00000 0 -12788084.885 -1534944.198 -21970506.638 10 0 59947 15300.00000 0 -10936855.026 -3592805.697 -22720411.181 10 0 59947 16200.00000 0 -9201460.902 -5831679.836 -23027135.579 10 0 59947 17100.00000 0 -7628761.389 -8199215.498 -22884891.576 10 0 59947 18000.00000 0 -6255751.564 -10635641.365 -22296674.298 10 0 59947 18900.00000 0 -5108174.354 -13076072.791 -21274186.148 10 0 59947 19800.00000 0 -4199624.854 -15453042.622 -19837588.674 10 0 59947 20700.00000 0 -3531182.692 -17699149.408 -18015088.711 10 0 59947 21600.00000 0 -3091585.051 -19749712.021 -15842368.378 10 0 59947 22500.00000 0 -2857930.125 -21545319.917 -13361871.410 10 0 59947 23400.00000 0 -2796878.375 -23034173.032 -10621961.078 10 0 59947 24300.00000 0 -2866298.212 -24174114.719 -7675967.201 10 0 59947 25200.00000 0 -3017284.340 -24934274.365 -4581141.627 10 0 59947 26100.00000 0 -3196461.864 -25296252.964 -1397543.172 10 0 59947 27000.00000 0 -3348477.760 -25254804.292 1813126.026 10 0 59947 27900.00000 0 -3418574.086 -24817985.414 4988710.275 10 0 59947 28800.00000 0 -3355134.531 -24006772.292 8067793.421 10 0 59947 29700.00000 0 -3112097.493 -22854158.313 10990873.030 10 0 59947 30600.00000 0 -2651134.989 -21403774.579 13701494.049 10 0 59947 31500.00000 0 -1943506.697 -19708090.184 16147321.386 10 0 59947 32400.00000 0 -971512.159 -17826267.499 18281132.401 10 0 59947 33300.00000 0 270519.322 -15821761.042 20061711.860 10 0 59947 34200.00000 0 1775742.474 -13759758.708 21454633.779 10 0 59947 35100.00000 0 3524834.568 -11704570.031 22432916.597 10 0 59947 36000.00000 0 5486558.444 -9717068.112 22977540.256 10 0 59947 36900.00000 0 7618828.565 -7852289.611 23077815.878 10 0 59947 37800.00000 0 9870238.319 -6157290.762 22731601.085 10 0 59947 38700.00000 0 12181988.023 -4669347.164 21945356.343 10 0 59947 39600.00000 0 14490136.403 -3414571.472 20734040.108 10 0 59947 40500.00000 0 16728084.800 -2407006.306 19120843.246 10 0 59947 41400.00000 0 18829193.209 -1648230.569 17136765.744 10 0 59947 42300.00000 0 20729420.883 -1127496.544 14820041.689 10 0 59947 43200.00000 0 22369882.356 -822393.178 12215421.312 10 0 59947 44100.00000 0 23699212.244 -700009.030 9373321.871 10 0 59947 45000.00000 0 24675639.013 -718547.187 6348862.159 10 0 59947 45900.00000 0 25268679.372 -829324.882 3200798.198 10 0 59947 46800.00000 0 25460380.123 -979073.644 -9619.745 10 0 59947 47700.00000 0 25246052.976 -1112442.320 -3219846.318 10 0 59947 48600.00000 0 24634469.208 -1174595.822 -6367272.222 10 0 59947 49500.00000 0 23647504.020 -1113797.660 -9390461.964 10 0 59947 50400.00000 0 22319244.217 -883864.462 -12230372.120 10 0 59947 51300.00000 0 20694596.107 -446385.709 -14831524.346 10 0 59947 52200.00000 0 18827452.260 227388.153 -17143108.179 10 0 59947 53100.00000 0 16778495.053 1155071.781 -19119990.099 10 0 59947 54000.00000 0 14612730.591 2342149.836 -20723607.669 10 0 59947 54900.00000 0 12396858.160 3781504.524 -21922730.160 10 0 59947 55800.00000 0 10196587.272 5453486.799 -22694070.195 10 0 59947 56700.00000 0 8074016.170 7326528.789 -23022734.440 10 0 59947 57600.00000 0 6085182.533 9358271.617 -22902504.954 10 0 59947 58500.00000 0 4277889.260 11497160.679 -22335946.550 10 0 59947 59400.00000 0 2689895.834 13684440.651 -21334339.213 10 0 59947 60300.00000 0 1347549.656 15856465.673 -19917438.274 10 0 59947 61200.00000 0 264912.692 17947227.000 -18113068.465 10 0 59947 62100.00000 0 -556582.655 19890991.693 -15956561.300 10 0 59947 63000.00000 0 -1127937.073 21624941.630 -13490048.098 10 0 59947 63900.00000 0 -1471858.704 23091702.531 -10761623.811 10 0 59947 64800.00000 0 -1621542.063 24241657.848 -7824399.019 10 0 59947 65700.00000 0 -1619005.723 25034951.829 -4735459.396 10 0 59947 66600.00000 0 -1513061.181 25443099.440 -1554753.594 10 0 59947 67500.00000 0 -1357000.236 25450137.622 1656068.579 10 0 59947 68400.00000 0 -1206099.454 25053271.656 4834845.194 10 0 59947 69300.00000 0 -1115047.295 24262991.479 7920095.695 10 0 59947 70200.00000 0 -1135402.107 23102654.778 10852196.524 10 0 59947 71100.00000 0 -1313187.371 21607555.472 13574517.294 10 0 59947 72000.00000 0 -1686724.418 19823517.182 16034496.836 10 0 59947 72900.00000 0 -2284792.678 17805070.389 18184640.031 10 0 59947 73800.00000 0 -3125193.928 15613288.536 19983417.935 10 0 59947 74700.00000 0 -4213780.243 13313371.972 21396055.472 10 0 59947 75600.00000 0 -5543986.526 10972078.397 22395193.078 10 0 59947 76500.00000 0 -7096888.033 8655104.469 22961410.742 10 0 59947 77400.00000 0 -8841782.005 6424525.185 23083605.035 10 0 59947 78300.00000 0 -10737271.358 4336395.191 22759212.093 10 0 59947 79200.00000 0 -12732807.987 2438609.866 21994271.755 10 0 59947 80100.00000 0 -14770634.279 769113.770 20803330.604 10 0 59947 81000.00000 0 -16788044.905 -645469.718 19209184.198 10 0 59947 81900.00000 0 -18719877.316 -1790730.653 17242461.395 10 0 59947 82800.00000 0 -20501129.092 -2664848.866 14941056.628 10 0 59947 83700.00000 0 -22069594.233 -3278437.785 12349418.748 10 0 59947 84600.00000 0 -23368408.646 -3653861.149 9517708.082 10 0 59947 85500.00000 0 -24348397.740 -3824050.058 6500836.334 10 0 59948 0.00000 0 -24970126.384 -3830869.251 3357407.033 10 0 59948 900.00000 0 -25205563.444 -3723100.981 148574.802 10 0 59948 1800.00000 0 -25039287.773 -3554131.733 -3063149.843 10 0 59948 2700.00000 0 -24469183.478 -3379440.501 -6215131.777 10 0 59948 3600.00000 0 -23506591.909 -3253996.373 -9245849.010 10 0 59948 4500.00000 0 -22175912.419 -3229677.824 -12096112.537 10 0 59948 5400.00000 0 -20513667.331 -3352825.541 -14710242.187 10 0 59948 6300.00000 0 -18567069.825 -3662035.175 -17037173.445 10 0 59948 7200.00000 0 -16392155.204 -4186286.130 -19031471.651 10 0 59948 8100.00000 0 -14051554.818 -4943487.922 -20654232.242 10 0 59948 9000.00000 0 -11612007.294 -5939507.470 -21873848.330 10 0 59948 9900.00000 0 -9141712.981 -7167719.692 -22666629.982 10 0 59948 10800.00000 0 -6707643.743 -8609101.041 -23017263.055 10 0 59948 11700.00000 0 -4372921.802 -10232862.105 -22919099.044 10 0 59948 12600.00000 0 -2194377.832 -11997592.202 -22374271.070 10 0 59948 13500.00000 0 -220390.245 -13852866.989 -21393634.902 10 0 59948 14400.00000 0 1510904.959 -15741250.595 -19996537.510 10 0 59948 15300.00000 0 2972960.531 -17600607.063 -18210419.120 10 0 59948 16200.00000 0 4151666.608 -19366623.290 -16070258.038 10 0 59948 17100.00000 0 5045669.009 -20975436.977 -13617870.449 10 0 59948 18000.00000 0 5666147.073 -22366259.156 -10901080.190 10 0 59948 18900.00000 0 6036063.711 -23483881.556 -7972775.795 10 0 59948 19800.00000 0 6188922.387 -24280964.444 -4889873.995 10 0 59948 20700.00000 0 6167086.069 -24720010.079 -1712210.580 10 0 59948 21600.00000 0 6019731.223 -24774940.622 1498619.556 10 0 59948 22500.00000 0 5800524.586 -24432215.990 4680450.702 10 0 59948 23400.00000 0 5565121.450 -23691446.572 7771740.182 10 0 59948 24300.00000 0 5368591.038 -22565476.703 10712745.438 10 0 59948 25200.00000 0 5262876.941 -21079936.595 13446662.671 10 0 59948 26100.00000 0 5294398.647 -19272282.176 15920706.328 10 0 59948 27000.00000 0 5501893.889 -17190363.032 18087110.257 10 0 59948 27900.00000 0 5914591.381 -14890577.509 19904032.964 10 0 59948 28800.00000 0 6550789.748 -12435690.659 21336351.132 10 0 59948 29700.00000 0 7416901.824 -9892403.958 22356327.714 10 0 59948 30600.00000 0 8507004.586 -7328775.521 22944142.927 10 0 59948 31500.00000 0 9802914.471 -4811595.599 23088278.652 10 0 59948 32400.00000 0 11274786.586 -2403823.826 22785749.066 10 0 59948 33300.00000 0 12882215.105 -162192.359 22042172.633 10 0 59948 34200.00000 0 14575791.545 1864927.204 20871683.054 10 0 59948 35100.00000 0 16299058.759 3639305.756 19296679.328 10 0 59948 36000.00000 0 17990781.849 5134213.806 17347417.727 10 0 59948 36900.00000 0 19587443.392 6335297.114 15061451.350 10 0 59948 37800.00000 0 21025860.373 7240933.635 12482925.792 10 0 59948 38700.00000 0 22245814.134 7862055.846 9661742.359 10 0 59948 39600.00000 0 23192582.969 8221444.678 6652603.374 10 0 59948 40500.00000 0 23819270.143 8352523.683 3513956.806 10 0 59948 41400.00000 0 24088827.706 8297703.487 306860.127 10 0 59948 42300.00000 0 23975688.586 8106346.091 -2906214.289 10 0 59948 43200.00000 0 23466935.592 7832435.507 -6062608.246 10 0 59948 44100.00000 0 22562955.373 7532054.367 -9100715.945 10 0 59948 45000.00000 0 21277547.350 7260775.036 -11961205.324 10 0 59948 45900.00000 0 19637481.136 7071078.002 -14588196.668 10 0 59948 46800.00000 0 17681519.795 7009909.369 -16930373.415 10 0 59948 47700.00000 0 15458949.561 7116483.458 -18942001.477 10 0 59948 48600.00000 0 13027678.001 7420425.871 -20583835.591 10 0 59948 49500.00000 0 10451981.179 7940337.562 -21823893.871 10 0 59948 50400.00000 0 7799995.492 8682841.939 -22638084.734 10 0 59948 51300.00000 0 5141060.450 9642156.067 -23010673.883 10 0 59948 52200.00000 0 2543024.653 10800204.174 -22934582.614 10 0 59948 53100.00000 0 69628.422 12127268.226 -22411512.401 10 0 59948 54000.00000 0 -2221927.456 13583147.303 -21451894.477 10 0 59948 54900.00000 0 -4283125.849 15118775.849 -20074666.739 10 0 59948 55800.00000 0 -6075901.915 16678231.397 -18306883.787 10 0 59948 56700.00000 0 -7573964.412 18201046.197 -16183169.208 10 0 59948 57600.00000 0 -8763617.021 19624724.618 -13745022.171 10 0 59948 58500.00000 0 -9644048.372 20887359.879 -11039993.213 10 0 59948 59400.00000 0 -10227081.939 21930240.015 -8120746.367 10 0 59948 60300.00000 0 -10536399.645 22700333.888 -5044026.778 10 0 59948 61200.00000 0 -10606274.842 23152553.539 -1869554.585 10 0 59948 62100.00000 0 -10479870.576 23251699.050 1341133.097 10 0 59948 63000.00000 0 -10207176.819 22974005.632 4525869.666 10 0 59948 63900.00000 0 -9842674.756 22308229.575 7623053.201 10 0 59948 64800.00000 0 -9442827.092 21256228.956 10572824.936 10 0 59948 65700.00000 0 -9063499.893 19833015.962 13318210.337 10 0 59948 66600.00000 0 -8757423.735 18066279.402 15806201.984 10 0 59948 67500.00000 0 -8571799.836 15995397.532 17988765.025 10 0 59948 68400.00000 0 -8546150.473 13669981.870 19823747.517 10 0 59948 69300.00000 0 -8710502.697 11148011.580 21275679.743 10 0 59948 70200.00000 0 -9083980.622 8493634.241 22316448.711 10 0 59948 71100.00000 0 -9673864.881 5774722.134 22925836.071 10 0 59948 72000.00000 0 -10475158.886 3060282.982 23091909.826 10 0 59948 72900.00000 0 -11470681.033 417829.943 22811262.576 10 0 59948 73800.00000 0 -12631680.685 -2089182.608 22089091.321 10 0 59948 74700.00000 0 -13918954.399 -4403753.125 20939116.270 10 0 59948 75600.00000 0 -15284418.329 -6477458.994 19383338.735 10 0 59948 76500.00000 0 -16673073.732 -8272227.298 17451640.743 10 0 59948 77400.00000 0 -18025285.748 -9761676.650 15181231.923 10 0 59948 78300.00000 0 -19279281.997 -10931973.851 12615952.023 10 0 59948 79200.00000 0 -20373767.471 -11782168.670 9805440.387 10 0 59948 80100.00000 0 -21250546.302 -12323991.538 6804186.733 10 0 59948 81000.00000 0 -21857039.656 -12581121.459 3670480.358 10 0 59948 81900.00000 0 -22148592.362 -12587953.938 465277.532 10 0 59948 82800.00000 0 -22090468.949 -12387920.211 -2748990.741 10 0 59948 83700.00000 0 -21659452.309 -12031428.761 -5909646.649 10 0 59948 84600.00000 0 -20844974.704 -11573516.779 -8955003.935 10 0 59948 85500.00000 0 -19649730.644 -11071312.223 -11825590.662 10 0 59949 0.00000 0 -18089743.572 -10581415.863 -14465330.306 10 0 59949 900.00000 0 -16193880.753 -10157316.114 -16822657.398 10 0 59949 1800.00000 0 -14002837.871 -9846949.183 -18851540.439 10 0 59949 2700.00000 0 -11567632.819 -9690509.198 -20512395.257 10 0 59949 3600.00000 0 -8947674.149 -9718603.593 -21772866.196 10 0 59949 4500.00000 0 -6208485.214 -9950832.927 -22608460.638 10 0 59949 5400.00000 0 -3419180.448 -10394856.017 -23003024.117 10 0 59949 6300.00000 0 -649800.385 -11045980.024 -22949047.115 10 0 59949 7200.00000 0 2031382.265 -11887292.344 -22447798.302 10 0 59949 8100.00000 0 4560472.566 -12890327.775 -21509282.758 10 0 59949 9000.00000 0 6880370.565 -14016241.532 -20152027.310 10 0 59949 9900.00000 0 8942895.599 -15217437.157 -18402698.626 10 0 59949 10800.00000 0 10710530.590 -16439579.250 -16295563.022 10 0 59949 11700.00000 0 12157715.690 -17623904.943 -13871799.903 10 0 59949 12600.00000 0 13271639.863 -18709735.733 -11178683.577 10 0 59949 13500.00000 0 14052500.449 -19637083.322 -8268650.533 10 0 59949 14400.00000 0 14513223.112 -20349239.675 -5198271.186 10 0 59949 15300.00000 0 14678657.086 -20795242.602 -2027146.863 10 0 59949 16200.00000 0 14584282.421 -20932113.941 1183246.229 10 0 59949 17100.00000 0 14274485.957 -20726777.334 4370743.618 10 0 59949 18000.00000 0 13800480.220 -20157576.324 7473686.961 10 0 59949 18900.00000 0 13217953.787 -19215330.348 10432103.866 10 0 59949 19800.00000 0 12584552.188 -17903885.486 13188851.334 10 0 59949 20700.00000 0 11957294.816 -16240137.709 15690701.998 10 0 59949 21600.00000 0 11390035.452 -14253527.933 17889353.845 10 0 59949 22500.00000 0 10931071.694 -11985029.576 19742345.620 10 0 59949 23400.00000 0 10621002.167 -9485669.883 21213861.944 10 0 59949 24300.00000 0 10490920.067 -6814644.853 22275414.219 10 0 59949 25200.00000 0 10561017.728 -4037103.883 22906385.468 10 0 59949 26100.00000 0 10839660.285 -1221693.585 23094429.386 10 0 59949 27000.00000 0 11322967.426 1562040.153 22835716.227 10 0 59949 27900.00000 0 11994921.766 4246286.899 22135020.434 10 0 59949 28800.00000 0 12828000.904 6767536.262 21005647.370 10 0 59949 29700.00000 0 13784308.870 9068967.917 19469199.052 10 0 59949 30600.00000 0 14817161.984 11102569.125 17555181.451 10 0 59949 31500.00000 0 15873065.078 12830892.164 15300458.719 10 0 59949 32400.00000 0 16893997.283 14228378.406 12748562.586 10 0 59949 33300.00000 0 17819912.965 15282193.040 9948868.095 10 0 59949 34200.00000 0 18591353.409 15992534.325 6955649.876 10 0 59949 35100.00000 0 19152059.235 16372403.135 3827035.951 10 0 59949 36000.00000 0 19451472.416 16446841.199 623878.693 10 0 59949 36900.00000 0 19447020.564 16251669.122 -2591434.971 10 0 59949 37800.00000 0 19106084.572 15831776.986 -5756210.266 10 0 59949 38700.00000 0 18407563.694 15239039.881 -8808682.992 10 0 59949 39600.00000 0 17342969.042 14529947.322 -11689243.658 10 0 59949 40500.00000 0 15916996.564 13763048.290 -14341621.429 10 0 59949 41400.00000 0 14147553.012 12996321.936 -16714002.734 10 0 59949 42300.00000 0 12065232.092 12284587.363 -18760060.622 10 0 59949 43200.00000 0 9712261.845 11677064.285 -20439873.201 10 0 59949 44100.00000 0 7140967.122 11215189.635 -21720711.983 10 0 59949 45000.00000 0 4411812.038 10930783.942 -22577684.022 10 0 59949 45900.00000 0 1591105.102 10844645.816 -22994215.165 10 0 59949 46800.00000 0 -1251536.044 10965634.128 -22962365.304 10 0 59949 47700.00000 0 -4045853.314 11290276.156 -22482970.236 10 0 59949 48600.00000 0 -6723638.255 11802917.190 -21565608.474 10 0 59949 49500.00000 0 -9221331.044 12476403.775 -20228394.982 10 0 59949 50400.00000 0 -11482420.276 13273270.036 -18497607.322 10 0 59949 51300.00000 0 -13459544.473 14147375.165 -16407152.994 10 0 59949 52200.00000 0 -15116209.341 15045921.313 -13997889.770 10 0 59949 53100.00000 0 -16428051.237 15911765.298 -11316813.615 10 0 59949 54000.00000 0 -17383596.897 16685925.588 -8416131.165 10 0 59949 54900.00000 0 -17984490.633 17310178.276 -5352235.681 10 0 59949 55800.00000 0 -18245182.598 17729632.500 -2184607.177 10 0 59949 56700.00000 0 -18192094.222 17895177.215 1025341.594 10 0 59949 57600.00000 0 -17862298.381 17765697.026 4215450.839 10 0 59949 58500.00000 0 -17301771.846 17309964.948 7324008.368 10 0 59949 59400.00000 0 -16563294.738 16508133.664 10290930.706 10 0 59949 60300.00000 0 -15704085.893 15352763.801 13058908.897 10 0 59949 61200.00000 0 -14783273.339 13849346.946 15574498.069 10 0 59949 62100.00000 0 -13859305.298 12016301.932 17789131.358 10 0 59949 63000.00000 0 -12987409.104 9884444.321 19660040.347 10 0 59949 63900.00000 0 -12217202.994 7495950.485 21151065.913 10 0 59949 64800.00000 0 -11590559.261 4902857.849 22233345.487 10 0 59949 65700.00000 0 -11139806.777 2165161.573 22885864.775 10 0 59949 66600.00000 0 -10886347.144 -651415.811 23095864.097 10 0 59949 67500.00000 0 -10839741.907 -3477892.144 22859091.885 10 0 59949 68400.00000 0 -10997309.305 -6244631.345 22179900.111 10 0 59949 69300.00000 0 -11344248.345 -8883981.648 21071178.907 10 0 59949 70200.00000 0 -11854286.582 -11332839.239 19554130.149 10 0 59949 71100.00000 0 -12490826.417 -13535032.520 17657882.432 10 0 59949 72000.00000 0 -13208544.032 -15443428.735 15418952.665 10 0 59949 72900.00000 0 -13955375.908 -17021675.461 12880562.394 10 0 59949 73800.00000 0 -14674811.144 -18245503.795 10091819.849 10 0 59949 74700.00000 0 -15308394.164 -19103537.606 7106781.783 10 0 59949 75600.00000 0 -15798332.687 -19597573.592 3983411.949 10 0 59949 76500.00000 0 -16090100.308 -19742318.880 782455.690 10 0 59949 77400.00000 0 -16134922.383 -19564595.828 -2433747.360 10 0 59949 78300.00000 0 -15892037.974 -19102046.670 -5602488.731 10 0 59949 79200.00000 0 -15330639.527 -18401392.285 -8661929.541 10 0 59949 80100.00000 0 -14431405.326 -17516318.988 -11552325.942 10 0 59949 81000.00000 0 -13187557.007 -16505083.605 -14217215.651 10 0 59949 81900.00000 0 -11605394.753 -15427939.663 -16604540.352 10 0 59949 82800.00000 0 -9704285.484 -14344495.388 -18667679.988 10 0 59949 83700.00000 0 -7516102.970 -13311117.251 -20366377.138 10 0 59949 84600.00000 0 -5084142.527 -12378490.673 -21667532.195 10 0 59949 85500.00000 0 -2461555.803 -11589442.474 -22545853.048 10 0 59950 0.00000 0 290628.200 -10977118.015 -22984346.414 10 0 59950 900.00000 0 3105813.772 -10563589.990 -22974641.688 10 0 59950 1800.00000 0 5914379.550 -10358957.912 -22517141.214 10 0 59950 2700.00000 0 8646348.033 -10360974.124 -21620995.958 10 0 59950 3600.00000 0 11234067.939 -10555211.337 -20303907.632 10 0 59950 4500.00000 0 13614798.875 -10915762.254 -18591762.940 10 0 59950 5400.00000 0 15733090.778 -11406439.650 -16518108.488 10 0 59950 6300.00000 0 17542860.046 -11982424.099 -14123478.017 10 0 59950 7200.00000 0 19009077.349 -12592287.853 -11454586.439 10 0 59950 8100.00000 0 20108998.987 -13180307.869 -8563407.527 10 0 59950 9000.00000 0 20832892.987 -13688969.240 -5506154.131 10 0 59950 9900.00000 0 21184232.432 -14061552.799 -2342181.494 10 0 59950 10800.00000 0 21179350.847 -14244697.696 867164.619 10 0 59950 11700.00000 0 20846576.785 -14190831.303 4059732.630 10 0 59950 12600.00000 0 20224886.113 -13860364.888 7173759.877 10 0 59950 13500.00000 0 19362130.264 -13223563.665 10149054.947 10 0 59950 14400.00000 0 18312915.685 -12262013.625 12928145.719 10 0 59950 15300.00000 0 17136223.690 -10969624.519 15457372.204 10 0 59950 16200.00000 0 15892869.995 -9353127.485 17687904.636 10 0 59950 17100.00000 0 14642909.269 -7432046.511 19576668.919 10 0 59950 18000.00000 0 13443091.878 -5238144.366 21087163.216 10 0 59950 18900.00000 0 12344477.462 -2814364.840 22190151.579 10 0 59950 19800.00000 0 11390303.392 -213313.320 22864222.553 10 0 59950 20700.00000 0 10614195.760 2504663.514 23096202.829 10 0 59950 21600.00000 0 10038796.597 5273722.024 22881418.360 10 0 59950 22500.00000 0 9674864.276 8024999.895 22223797.623 10 0 59950 23400.00000 0 9520884.974 10689228.379 21135814.143 10 0 59950 24300.00000 0 9563212.318 13199372.700 19638267.963 10 0 59950 25200.00000 0 9776730.822 15493193.013 17759908.330 10 0 59950 26100.00000 0 10126017.083 17515620.657 15536902.693 10 0 59950 27000.00000 0 10566951.864 19220851.301 13012159.973 10 0 59950 27900.00000 0 11048717.010 20574067.405 10234518.961 10 0 59950 28800.00000 0 11516094.395 21552716.982 7257815.748 10 0 59950 29700.00000 0 11911970.582 22147293.708 4139846.907 10 0 59950 30600.00000 0 12179941.262 22361583.947 941247.777 10 0 59950 31500.00000 0 12266904.408 22212368.637 -2275692.278 10 0 59950 32400.00000 0 12125530.622 21728591.218 -5448253.965 10 0 59950 33300.00000 0 11716503.717 20950025.834 -8514526.429 10 0 59950 34200.00000 0 11010433.864 19925501.743 -11414633.914 10 0 59950 35100.00000 0 9989359.349 18710759.409 -14091924.840 10 0 59950 36000.00000 0 8647770.557 17366029.861 -16494097.955 10 0 59950 36900.00000 0 6993110.438 15953441.170 -18574241.573 10 0 59950 37800.00000 0 5045728.378 14534363.368 -20291763.905 10 0 59950 38700.00000 0 2838288.055 13166805.687 -21613195.095 10 0 59950 39600.00000 0 414653.614 11902977.572 -22512844.469 10 0 59950 40500.00000 0 -2171699.136 10787117.385 -22973299.987 10 0 59950 41400.00000 0 -4859679.489 9853680.785 -22985760.428 10 0 59950 42300.00000 0 -7582902.153 9125964.877 -22550194.523 10 0 59950 43200.00000 0 -10272233.328 8615225.091 -21675325.038 10 0 59950 44100.00000 0 -12858455.524 8320320.320 -20378439.396 10 0 59950 45000.00000 0 -15274939.385 8227899.151 -18685032.018 10 0 59950 45900.00000 0 -17460211.155 8313116.844 -16628286.839 10 0 59950 46800.00000 0 -19360309.283 8540850.264 -14248411.501 10 0 59950 47700.00000 0 -20930832.911 8867357.077 -11591837.583 10 0 59950 48600.00000 0 -22138598.516 9242307.030 -8710303.598 10 0 59950 49500.00000 0 -22962837.708 9611097.896 -5659839.509 10 0 59950 50400.00000 0 -23395888.552 9917357.133 -2499673.309 10 0 59950 51300.00000 0 -23443354.227 10105523.153 708918.715 10 0 59950 52200.00000 0 -23123724.943 10123397.201 3903795.674 10 0 59950 53100.00000 0 -22467481.268 9924558.757 7023146.905 10 0 59950 54000.00000 0 -21515718.281 9470543.483 10006675.500 10 0 59950 54900.00000 0 -20318349.430 8732693.016 12796748.593 10 0 59950 55800.00000 0 -18931965.833 7693599.846 15339493.412 10 0 59950 56700.00000 0 -17417440.455 6348087.349 17585819.502 10 0 59950 57600.00000 0 -15837376.500 4703684.176 19492349.106 10 0 59950 58500.00000 0 -14253505.285 2780572.912 21022239.435 10 0 59950 59400.00000 0 -12724140.532 611014.170 22145882.600 10 0 59950 60300.00000 0 -11301793.395 -1761731.567 22841471.073 10 0 59950 61200.00000 0 -10031045.967 -4284941.683 23095418.618 10 0 59950 62100.00000 0 -8946770.460 -6898367.611 22902629.019 10 0 59950 63000.00000 0 -8072767.329 -9536492.098 22266607.163 10 0 59950 63900.00000 0 -7420878.850 -12131016.762 21199409.484 10 0 59950 64800.00000 0 -6990615.403 -14613479.543 19721433.324 10 0 59950 65700.00000 0 -6769310.965 -16917895.595 17861047.338 10 0 59950 66600.00000 0 -6732802.640 -18983313.377 15654067.922 10 0 59950 67500.00000 0 -6846607.297 -20756180.378 13143089.458 10 0 59950 68400.00000 0 -7067547.468 -22192419.768 10376679.107 10 0 59950 69300.00000 0 -7345759.419 -23259130.392 7408449.885 10 0 59950 70200.00000 0 -7626999.578 -23935837.530 4296028.599 10 0 59950 71100.00000 0 -7855152.061 -24215240.154 1099937.874 10 0 59950 72000.00000 0 -7974830.704 -24103421.311 -2117586.000 10 0 59950 72900.00000 0 -7933964.044 -23619511.002 -5293815.787 10 0 59950 73800.00000 0 -7686251.667 -22794814.354 -8366771.571 10 0 59950 74700.00000 0 -7193385.294 -21671441.048 -11276448.633 10 0 59950 75600.00000 0 -6426937.599 -20300493.700 -13966008.979 10 0 59950 76500.00000 0 -5369835.874 -18739892.195 -16382911.219 10 0 59950 77400.00000 0 -4017355.538 -17051926.954 -18479954.626 10 0 59950 78300.00000 0 -2377589.248 -15300645.848 -20216215.350 10 0 59950 79200.00000 0 -471370.123 -13549186.636 -21557855.206 10 0 59950 80100.00000 0 1668348.664 -11857168.922 -22478786.431 10 0 59950 81000.00000 0 3997632.240 -10278256.678 -22961179.195 10 0 59950 81900.00000 0 6463172.427 -8857994.557 -22995802.245 10 0 59950 82800.00000 0 9004298.079 -7632009.020 -22582190.673 10 0 59950 83700.00000 0 11555302.456 -6624649.114 -21728638.654 10 0 59950 84600.00000 0 14047989.504 -5848122.522 -20452018.541 10 0 59950 85500.00000 0 16414331.872 -5302161.116 -18777431.324 99